• Em Portugal
  • Lista de países
  • Para 7 dias
  • Temperatura da água
  • Mapas de satélite
  • Mapa do tempo
  • Widgets de tempo
  • user-avatar
    Iniciar Sessão

    Previsão horária em Bandar Abbas

    Hoje, 24 Novembro, Sexta-feira

    Tempo Temperatura Precipitação Vento Pressão Humidade
    00:00 +25°C° 0,1 mm 2 m/s 760 mmHg 62%
    01:00 +25°C° 0,1 mm 2 m/s 760 mmHg 62%
    02:00 +24°C° 0,1 mm 2 m/s 760 mmHg 64%
    03:00 +24°C° 0,1 mm 2 m/s 760 mmHg 65%
    04:00 +23°C° 0 mm 2 m/s 760 mmHg 66%
    05:00 +23°C° 0 mm 2 m/s 760 mmHg 67%
    06:00 +23°C° 0 mm 2 m/s 761 mmHg 67%
    07:00 +23°C° 0 mm 2 m/s 761 mmHg 67%
    08:00 +24°C° 0 mm 1 m/s 761 mmHg 60%
    09:00 +25°C° 0 mm 1 m/s 761 mmHg 53%
    10:00 +26°C° 0 mm 1 m/s 762 mmHg 47%
    11:00 +27°C° 0 mm 2 m/s 761 mmHg 42%
    12:00 +28°C° 0 mm 2 m/s 761 mmHg 38%
    13:00 +29°C° 0 mm 3 m/s 761 mmHg 33%
    14:00 +29°C° 0 mm 3 m/s 761 mmHg 32%
    15:00 +29°C° 0 mm 4 m/s 760 mmHg 32%
    16:00 +29°C° 0 mm 5 m/s 760 mmHg 31%
    17:00 +29°C° 0 mm 5 m/s 761 mmHg 35%
    18:00 +28°C° 0 mm 5 m/s 761 mmHg 38%
    19:00 +27°C° 0 mm 5 m/s 761 mmHg 42%
    20:00 +27°C° 0 mm 5 m/s 761 mmHg 44%
    21:00 +26°C° 0 mm 5 m/s 761 mmHg 46%
    22:00 +26°C° 0 mm 4 m/s 762 mmHg 49%
    23:00 +25°C° 0 mm 4 m/s 762 mmHg 48%

    Amanhã, 25 Novembro, Sábado

    Tempo Temperatura Precipitação Vento Pressão Humidade
    00:00 +25°C° 0 mm 4 m/s 762 mmHg 46%
    01:00 +25°C° 0 mm 4 m/s 762 mmHg 45%
    02:00 +23°C° 0 mm 4 m/s 761 mmHg 44%
    03:00 +23°C° 0 mm 4 m/s 761 mmHg 43%
    04:00 +22°C° 0 mm 4 m/s 761 mmHg 42%
    05:00 +22°C° 0 mm 3 m/s 761 mmHg 42%
    06:00 +21°C° 0 mm 3 m/s 762 mmHg 41%
    07:00 +21°C° 0 mm 3 m/s 762 mmHg 40%
    08:00 +24°C° 0 mm 3 m/s 763 mmHg 35%
    09:00 +25°C° 0 mm 2 m/s 763 mmHg 30%
    10:00 +27°C° 0 mm 2 m/s 763 mmHg 25%
    11:00 +27°C° 0 mm 2 m/s 763 mmHg 23%
    12:00 +28°C° 0 mm 2 m/s 762 mmHg 20%
    13:00 +29°C° 0 mm 2 m/s 762 mmHg 17%
    14:00 +29°C° 0 mm 2 m/s 762 mmHg 17%
    15:00 +29°C° 0 mm 3 m/s 761 mmHg 16%
    16:00 +29°C° 0 mm 3 m/s 761 mmHg 16%
    17:00 +28°C° 0 mm 3 m/s 762 mmHg 20%
    18:00 +26°C° 0 mm 3 m/s 762 mmHg 24%
    19:00 +25°C° 0 mm 3 m/s 763 mmHg 28%
    20:00 +25°C° 0 mm 3 m/s 763 mmHg 30%
    21:00 +24°C° 0 mm 3 m/s 763 mmHg 33%
    22:00 +23°C° 0 mm 2 m/s 763 mmHg 36%
    23:00 +23°C° 0 mm 2 m/s 763 mmHg 38%

    Depois de amanhã, 26 Novembro, Domingo

    Tempo Temperatura Precipitação Vento Pressão Humidade
    00:00 +21°C° 0 mm 2 m/s 763 mmHg 39%
    01:00 +21°C° 0 mm 2 m/s 763 mmHg 40%
    02:00 +22°C° 0 mm 1 m/s 763 mmHg 41%
    03:00 +21°C° 0 mm 1 m/s 763 mmHg 41%
    04:00 +21°C° 0 mm 1 m/s 763 mmHg 41%
    05:00 +21°C° 0 mm 1 m/s 763 mmHg 41%
    06:00 +21°C° 0 mm 1 m/s 763 mmHg 41%
    07:00 +20°C° 0 mm 1 m/s 764 mmHg 41%
    08:00 +22°C° 0 mm 1 m/s 764 mmHg 36%
    09:00 +25°C° 0 mm 1 m/s 764 mmHg 31%
    10:00 +27°C° 0 mm 1 m/s 765 mmHg 26%
    11:00 +28°C° 0 mm 1 m/s 764 mmHg 24%
    12:00 +28°C° 0 mm 1 m/s 764 mmHg 22%
    13:00 +29°C° 0 mm 1 m/s 763 mmHg 20%
    14:00 +29°C° 0 mm 1 m/s 763 mmHg 19%
    15:00 +30°C° 0 mm 1 m/s 762 mmHg 18%
    16:00 +30°C° 0 mm 1 m/s 762 mmHg 18%
    17:00 +28°C° 0 mm 1 m/s 762 mmHg 20%
    18:00 +27°C° 0 mm 1 m/s 763 mmHg 22%
    19:00 +26°C° 0 mm 1 m/s 763 mmHg 25%
    20:00 +25°C° 0 mm 1 m/s 763 mmHg 25%
    21:00 +25°C° 0 mm 1 m/s 763 mmHg 25%
    22:00 +24°C° 0 mm 1 m/s 764 mmHg 25%
    23:00 +24°C° 0 mm 1 m/s 763 mmHg 25%

    27 Novembro, Segunda-feira

    Tempo Temperatura Precipitação Vento Pressão Humidade
    00:00 +24°C° 0 mm 1 m/s 763 mmHg 25%
    01:00 +23°C° 0 mm 1 m/s 763 mmHg 25%
    02:00 +23°C° 0 mm 2 m/s 763 mmHg 25%
    03:00 +21°C° 0 mm 2 m/s 762 mmHg 25%
    04:00 +21°C° 0 mm 2 m/s 762 mmHg 26%
    05:00 +21°C° 0 mm 2 m/s 762 mmHg 26%
    06:00 +21°C° 0 mm 2 m/s 763 mmHg 26%
    07:00 +20°C° 0 mm 2 m/s 763 mmHg 26%
    08:00 +24°C° 0 mm 2 m/s 763 mmHg 22%
    09:00 +26°C° 0 mm 2 m/s 763 mmHg 18%
    10:00 +29°C° 0 mm 2 m/s 764 mmHg 15%
    11:00 +29°C° 0 mm 1 m/s 763 mmHg 14%
    12:00 +30°C° 0 mm 1 m/s 762 mmHg 14%
    13:00 +31°C° 0 mm 1 m/s 762 mmHg 13%
    14:00 +31°C° 0 mm 1 m/s 761 mmHg 13%
    15:00 +31°C° 0 mm 1 m/s 761 mmHg 13%
    16:00 +31°C° 0 mm 1 m/s 760 mmHg 13%
    17:00 +29°C° 0 mm 1 m/s 760 mmHg 16%
    18:00 +28°C° 0 mm 1 m/s 761 mmHg 19%
    19:00 +26°C° 0 mm 1 m/s 761 mmHg 21%
    20:00 +26°C° 0 mm 1 m/s 761 mmHg 22%
    21:00 +25°C° 0 mm 1 m/s 761 mmHg 23%
    22:00 +24°C° 0 mm 1 m/s 761 mmHg 24%
    23:00 +24°C° 0 mm 1 m/s 761 mmHg 25%

    28 Novembro, Terça-feira

    Tempo Temperatura Precipitação Vento Pressão Humidade
    00:00 +24°C° 0 mm 1 m/s 761 mmHg 25%
    01:00 +23°C° 0 mm 1 m/s 760 mmHg 26%
    02:00 +23°C° 0 mm 1 m/s 760 mmHg 26%
    03:00 +23°C° 0 mm 1 m/s 760 mmHg 26%
    04:00 +20°C° 0 mm 0 m/s 760 mmHg 26%
    05:00 +20°C° 0 mm 0 m/s 760 mmHg 27%
    06:00 +20°C° 0 mm 0 m/s 760 mmHg 27%
    07:00 +20°C° 0 mm 0 m/s 761 mmHg 27%
    08:00 +22°C° 0 mm 0 m/s 761 mmHg 24%
    09:00 +24°C° 0 mm 0 m/s 761 mmHg 21%
    10:00 +26°C° 0 mm 0 m/s 761 mmHg 18%
    11:00 +29°C° 0 mm 1 m/s 760 mmHg 17%
    12:00 +30°C° 0 mm 1 m/s 759 mmHg 16%
    13:00 +31°C° 0 mm 2 m/s 759 mmHg 16%
    14:00 +31°C° 0 mm 2 m/s 758 mmHg 16%
    15:00 +31°C° 0 mm 3 m/s 758 mmHg 17%
    16:00 +31°C° 0 mm 3 m/s 758 mmHg 17%
    17:00 +29°C° 0 mm 3 m/s 758 mmHg 22%
    18:00 +28°C° 0 mm 2 m/s 759 mmHg 27%
    19:00 +27°C° 0 mm 2 m/s 759 mmHg 32%
    20:00 +26°C° 0 mm 2 m/s 759 mmHg 34%
    21:00 +26°C° 0 mm 1 m/s 759 mmHg 36%
    22:00 +25°C° 0 mm 1 m/s 760 mmHg 39%
    23:00 +25°C° 0 mm 1 m/s 760 mmHg 39%

    29 Novembro, Quarta-feira

    Tempo Temperatura Precipitação Vento Pressão Humidade
    00:00 +24°C° 0 mm 2 m/s 759 mmHg 39%
    01:00 +24°C° 0 mm 2 m/s 759 mmHg 39%
    02:00 +23°C° 0 mm 2 m/s 759 mmHg 39%
    03:00 +23°C° 0 mm 2 m/s 759 mmHg 38%
    04:00 +23°C° 0 mm 2 m/s 760 mmHg 38%
    05:00 +21°C° 0 mm 2 m/s 760 mmHg 37%
    06:00 +21°C° 0 mm 2 m/s 760 mmHg 37%
    07:00 +21°C° 0 mm 2 m/s 761 mmHg 36%
    08:00 +24°C° 0 mm 2 m/s 761 mmHg 31%
    09:00 +27°C° 0 mm 2 m/s 761 mmHg 27%
    10:00 +29°C° 0 mm 1 m/s 762 mmHg 22%
    11:00 +30°C° 0 mm 1 m/s 761 mmHg 20%
    12:00 +31°C° 0 mm 1 m/s 760 mmHg 18%
    13:00 +31°C° 0 mm 1 m/s 760 mmHg 16%
    14:00 +32°C° 0 mm 1 m/s 760 mmHg 16%
    15:00 +32°C° 0 mm 1 m/s 760 mmHg 15%
    16:00 +32°C° 0 mm 1 m/s 759 mmHg 15%
    17:00 +30°C° 0 mm 1 m/s 760 mmHg 18%
    18:00 +29°C° 0 mm 2 m/s 760 mmHg 20%
    19:00 +27°C° 0 mm 2 m/s 761 mmHg 23%
    20:00 +27°C° 0 mm 2 m/s 761 mmHg 23%
    21:00 +26°C° 0 mm 2 m/s 761 mmHg 24%
    22:00 +26°C° 0 mm 2 m/s 761 mmHg 24%
    23:00 +25°C° 0 mm 2 m/s 761 mmHg 24%
    Mostrar mais